Time,TemperatureF,DewpointF,PressureIn,WindDirection,WindDirectionDegrees,WindSpeedMPH,WindSpeedGustMPH,Humidity,HourlyPrecipIn,Conditions,Clouds,dailyrainin,SoftwareType,DateUTC
2013-02-05 00:01:00,49.0,45.0,29.91,WSW,256,1.0,3.0,86,0.00,,,0.07,,2013-02-05 06:01:00,
2013-02-05 00:11:00,49.0,45.0,29.91,WSW,256,1.0,3.0,86,0.00,,,0.07,,2013-02-05 06:11:00,
2013-02-05 00:21:00,49.0,45.0,29.91,WSW,256,0.0,3.0,86,0.00,,,0.07,,2013-02-05 06:21:00,
2013-02-05 00:32:00,49.0,45.0,29.91,WSW,256,1.0,3.0,86,0.00,,,0.07,,2013-02-05 06:32:00,
2013-02-05 00:42:00,49.0,45.0,29.91,WSW,256,1.0,3.0,86,0.00,,,0.07,,2013-02-05 06:42:00,
2013-02-05 00:52:00,49.0,45.0,29.92,WSW,256,0.0,2.0,86,0.00,,,0.07,,2013-02-05 06:52:00,
2013-02-05 01:01:00,49.0,45.0,29.91,WSW,256,0.0,2.0,86,0.00,,,0.07,,2013-02-05 07:01:00,
2013-02-05 01:11:00,49.0,45.0,29.91,WSW,256,0.0,2.0,86,0.00,,,0.07,,2013-02-05 07:11:00,
2013-02-05 01:22:00,49.0,45.0,29.91,WSW,256,0.0,4.0,86,0.00,,,0.07,,2013-02-05 07:22:00,
2013-02-05 01:31:00,49.0,45.0,29.91,West,259,0.0,5.0,86,0.00,,,0.07,,2013-02-05 07:31:00,
2013-02-05 01:41:00,49.0,45.0,29.91,West,259,0.0,5.0,86,0.00,,,0.07,,2013-02-05 07:41:00,
2013-02-05 01:52:00,49.0,45.0,29.91,WSW,252,1.0,6.0,86,0.00,,,0.07,,2013-02-05 07:52:00,
2013-02-05 02:01:00,49.0,45.0,29.91,SW,235,0.0,0.0,86,0.00,,,0.07,,2013-02-05 08:01:00,
2013-02-05 02:11:00,49.0,45.0,29.91,SW,235,0.0,0.0,86,0.00,,,0.07,,2013-02-05 08:11:00,
2013-02-05 02:21:00,48.0,44.0,29.91,SW,235,0.0,4.0,86,0.00,,,0.07,,2013-02-05 08:21:00,
2013-02-05 02:31:00,47.0,43.0,29.91,SW,235,0.0,0.0,87,0.00,,,0.07,,2013-02-05 08:31:00,
2013-02-05 02:41:00,47.0,43.0,29.91,SW,235,0.0,0.0,87,0.00,,,0.07,,2013-02-05 08:41:00,
2013-02-05 02:52:00,47.0,43.0,29.91,SW,235,0.0,0.0,87,0.00,,,0.07,,2013-02-05 08:52:00,
2013-02-05 03:02:00,46.0,42.0,29.91,SW,235,0.0,0.0,87,0.00,,,0.07,,2013-02-05 09:02:00,
2013-02-05 03:11:00,45.0,42.0,29.91,SW,235,0.0,0.0,88,0.00,,,0.07,,2013-02-05 09:11:00,
2013-02-05 03:21:00,45.0,42.0,29.91,SW,235,0.0,0.0,88,0.00,,,0.07,,2013-02-05 09:21:00,
2013-02-05 03:32:00,44.0,41.0,29.91,SW,235,0.0,0.0,90,0.00,,,0.07,,2013-02-05 09:32:00,
2013-02-05 03:42:00,44.0,41.0,29.91,SW,235,0.0,0.0,90,0.00,,,0.07,,2013-02-05 09:42:00,
2013-02-05 03:52:00,44.0,42.0,29.91,SW,235,0.0,0.0,91,0.00,,,0.07,,2013-02-05 09:52:00,
2013-02-05 04:01:00,44.0,42.0,29.91,SW,235,0.0,0.0,91,0.00,,,0.07,,2013-02-05 10:01:00,
2013-02-05 04:11:00,44.0,42.0,29.91,SW,235,0.0,0.0,92,0.00,,,0.07,,2013-02-05 10:11:00,
2013-02-05 04:21:00,44.0,42.0,29.91,SW,235,0.0,0.0,92,0.00,,,0.07,,2013-02-05 10:21:00,
2013-02-05 04:32:00,44.0,42.0,29.91,SW,235,0.0,1.0,92,0.00,,,0.07,,2013-02-05 10:32:00,
2013-02-05 04:42:00,44.0,42.0,29.91,SW,235,0.0,1.0,92,0.00,,,0.07,,2013-02-05 10:42:00,
2013-02-05 04:52:00,44.0,42.0,29.91,SW,235,0.0,0.0,92,0.00,,,0.07,,2013-02-05 10:52:00,
2013-02-05 05:01:00,43.0,41.0,29.91,SW,235,0.0,0.0,92,0.00,,,0.07,,2013-02-05 11:01:00,
2013-02-05 05:11:00,43.0,41.0,29.91,SW,235,0.0,0.0,92,0.00,,,0.07,,2013-02-05 11:11:00,
2013-02-05 05:22:00,43.0,41.0,29.92,SW,235,0.0,0.0,92,0.00,,,0.07,,2013-02-05 11:22:00,
2013-02-05 05:32:00,42.0,40.0,29.92,SW,235,0.0,0.0,92,0.00,,,0.07,,2013-02-05 11:32:00,
2013-02-05 05:42:00,42.0,40.0,29.92,SW,235,0.0,0.0,92,0.00,,,0.07,,2013-02-05 11:42:00,
2013-02-05 05:52:00,42.0,40.0,29.93,SW,235,0.0,0.0,92,0.00,,,0.07,,2013-02-05 11:52:00,
2013-02-05 06:01:00,41.0,39.0,29.93,SW,235,0.0,0.0,92,0.00,,,0.07,,2013-02-05 12:01:00,
2013-02-05 06:12:00,41.0,39.0,29.93,SW,235,0.0,0.0,92,0.00,,,0.07,,2013-02-05 12:12:00,
2013-02-05 06:22:00,41.0,39.0,29.93,SW,235,0.0,0.0,92,0.00,,,0.07,,2013-02-05 12:22:00,
2013-02-05 06:32:00,41.0,39.0,29.93,SW,235,0.0,0.0,93,0.00,,,0.07,,2013-02-05 12:32:00,
2013-02-05 06:42:00,41.0,39.0,29.93,SW,235,0.0,0.0,93,0.00,,,0.07,,2013-02-05 12:42:00,
2013-02-05 06:52:00,40.0,38.0,29.94,SW,235,0.0,0.0,93,0.00,,,0.07,,2013-02-05 12:52:00,
2013-02-05 07:01:00,40.0,38.0,29.95,SW,235,0.0,0.0,93,0.00,,,0.07,,2013-02-05 13:01:00,
2013-02-05 07:12:00,40.0,38.0,29.95,SW,235,0.0,0.0,93,0.00,,,0.07,,2013-02-05 13:12:00,
2013-02-05 07:22:00,39.0,37.0,29.96,SW,235,0.0,0.0,93,0.00,,,0.07,,2013-02-05 13:22:00,
2013-02-05 07:32:00,39.0,37.0,29.96,SW,235,0.0,0.0,93,0.00,,,0.07,,2013-02-05 13:32:00,
2013-02-05 07:42:00,39.0,37.0,29.96,SW,235,0.0,0.0,93,0.00,,,0.07,,2013-02-05 13:42:00,
2013-02-05 07:52:00,39.0,37.0,29.96,SW,235,0.0,0.0,94,0.00,,,0.07,,2013-02-05 13:52:00,
2013-02-05 08:01:00,40.0,38.0,29.97,SW,235,0.0,0.0,94,0.00,,,0.07,,2013-02-05 14:01:00,
2013-02-05 08:12:00,40.0,38.0,29.97,SW,235,0.0,0.0,94,0.00,,,0.07,,2013-02-05 14:12:00,
2013-02-05 08:21:00,43.0,42.0,29.97,SW,235,0.0,0.0,95,0.00,,,0.07,,2013-02-05 14:21:00,
2013-02-05 08:31:00,44.0,43.0,29.98,SW,235,0.0,0.0,95,0.00,,,0.07,,2013-02-05 14:31:00,
2013-02-05 08:42:00,44.0,43.0,29.98,SW,235,0.0,0.0,95,0.00,,,0.07,,2013-02-05 14:42:00,
2013-02-05 08:52:00,45.0,44.0,29.99,SW,235,0.0,0.0,95,0.00,,,0.07,,2013-02-05 14:52:00,
2013-02-05 09:02:00,47.0,46.0,29.99,SW,235,0.0,0.0,95,0.00,,,0.07,,2013-02-05 15:02:00,
2013-02-05 09:11:00,47.0,46.0,29.99,SW,235,0.0,0.0,95,0.00,,,0.07,,2013-02-05 15:11:00,
2013-02-05 09:21:00,48.0,46.0,30.00,SW,235,0.0,2.0,94,0.00,,,0.07,,2013-02-05 15:21:00,
2013-02-05 09:32:00,50.0,48.0,30.00,SW,235,0.0,3.0,92,0.00,,,0.07,,2013-02-05 15:32:00,
2013-02-05 09:41:00,50.0,48.0,30.00,SW,235,0.0,3.0,92,0.00,,,0.07,,2013-02-05 15:41:00,
2013-02-05 09:52:00,50.0,47.0,30.00,SW,235,0.0,2.0,89,0.00,,,0.07,,2013-02-05 15:52:00,
2013-02-05 10:01:00,51.0,47.0,30.01,SW,219,2.0,5.0,87,0.00,,,0.07,,2013-02-05 16:01:00,
2013-02-05 10:11:00,51.0,47.0,30.01,SW,219,2.0,5.0,87,0.00,,,0.07,,2013-02-05 16:11:00,
2013-02-05 10:22:00,52.0,48.0,30.01,SSW,209,0.0,6.0,86,0.00,,,0.07,,2013-02-05 16:22:00,
2013-02-05 10:32:00,53.0,48.0,30.01,SSW,194,0.0,4.0,82,0.00,,,0.07,,2013-02-05 16:32:00,
2013-02-05 10:42:00,53.0,48.0,30.01,SSW,194,0.0,4.0,82,0.00,,,0.07,,2013-02-05 16:42:00,
2013-02-05 10:52:00,54.0,48.0,30.01,SW,221,0.0,5.0,80,0.00,,,0.07,,2013-02-05 16:52:00,
2013-02-05 11:01:00,55.0,48.0,30.01,SW,227,0.0,4.0,78,0.00,,,0.07,,2013-02-05 17:01:00,
2013-02-05 11:11:00,55.0,48.0,30.01,SW,227,0.0,4.0,78,0.00,,,0.07,,2013-02-05 17:11:00,
2013-02-05 11:21:00,56.0,49.0,30.00,West,274,0.0,6.0,76,0.00,,,0.07,,2013-02-05 17:21:00,
2013-02-05 11:32:00,57.0,49.0,30.01,NNW,348,0.0,4.0,74,0.00,,,0.07,,2013-02-05 17:32:00,
2013-02-05 11:42:00,57.0,49.0,30.01,NNW,348,0.0,4.0,74,0.00,,,0.07,,2013-02-05 17:42:00,
2013-02-05 11:52:00,58.0,49.0,30.00,NW,304,0.0,5.0,72,0.00,,,0.07,,2013-02-05 17:52:00,
2013-02-05 12:02:00,58.0,49.0,29.99,SSW,201,0.0,6.0,72,0.00,,,0.07,,2013-02-05 18:02:00,
2013-02-05 12:11:00,58.0,49.0,29.99,SSW,201,0.0,6.0,72,0.00,,,0.07,,2013-02-05 18:11:00,
2013-02-05 12:22:00,59.0,49.0,29.98,WSW,243,2.0,6.0,69,0.00,,,0.07,,2013-02-05 18:22:00,
2013-02-05 12:32:00,61.0,50.0,29.98,North,355,1.0,4.0,66,0.00,,,0.07,,2013-02-05 18:32:00,
2013-02-05 12:42:00,61.0,50.0,29.98,North,355,1.0,4.0,66,0.00,,,0.07,,2013-02-05 18:42:00,
2013-02-05 12:52:00,61.0,49.0,29.97,WNW,285,3.0,6.0,65,0.00,,,0.07,,2013-02-05 18:52:00,
2013-02-05 13:02:00,62.0,50.0,29.96,NW,307,2.0,9.0,64,0.00,,,0.07,,2013-02-05 19:02:00,
2013-02-05 13:11:00,62.0,50.0,29.96,NW,307,2.0,9.0,64,0.00,,,0.07,,2013-02-05 19:11:00,
2013-02-05 13:21:00,62.0,49.0,29.96,NNW,340,1.0,8.0,63,0.00,,,0.07,,2013-02-05 19:21:00,
2013-02-05 13:32:00,62.0,49.0,29.96,SW,234,0.0,7.0,63,0.00,,,0.07,,2013-02-05 19:32:00,
2013-02-05 13:42:00,62.0,49.0,29.96,SW,234,0.0,7.0,63,0.00,,,0.07,,2013-02-05 19:42:00,
2013-02-05 13:52:00,63.0,48.0,29.96,NNW,336,5.0,9.0,59,0.00,,,0.07,,2013-02-05 19:52:00,
2013-02-05 14:01:00,63.0,48.0,29.95,SW,228,3.0,7.0,59,0.00,,,0.07,,2013-02-05 20:01:00,
2013-02-05 14:11:00,63.0,48.0,29.95,SW,228,3.0,7.0,59,0.00,,,0.07,,2013-02-05 20:11:00,
2013-02-05 14:21:00,64.0,48.0,29.95,NNW,344,3.0,8.0,57,0.00,,,0.07,,2013-02-05 20:21:00,
2013-02-05 14:32:00,64.0,47.0,29.95,WNW,298,1.0,10.0,54,0.00,,,0.07,,2013-02-05 20:32:00,
2013-02-05 14:42:00,64.0,47.0,29.95,WNW,298,1.0,10.0,54,0.00,,,0.07,,2013-02-05 20:42:00,
2013-02-05 14:52:00,64.0,47.0,29.95,NW,317,2.0,8.0,54,0.00,,,0.07,,2013-02-05 20:52:00,
2013-02-05 15:02:00,64.0,46.0,29.94,NW,325,3.0,8.0,52,0.00,,,0.07,,2013-02-05 21:02:00,
2013-02-05 15:11:00,64.0,46.0,29.94,NW,325,3.0,8.0,52,0.00,,,0.07,,2013-02-05 21:11:00,
2013-02-05 15:22:00,65.0,46.0,29.94,NW,316,5.0,10.0,50,0.00,,,0.07,,2013-02-05 21:22:00,
2013-02-05 15:32:00,65.0,46.0,29.94,NNW,328,0.0,7.0,51,0.00,,,0.07,,2013-02-05 21:32:00,
2013-02-05 15:42:00,65.0,46.0,29.94,NNW,328,0.0,7.0,51,0.00,,,0.07,,2013-02-05 21:42:00,
2013-02-05 15:52:00,64.0,45.0,29.94,WNW,302,4.0,8.0,50,0.00,,,0.07,,2013-02-05 21:52:00,
2013-02-05 16:01:00,64.0,44.0,29.94,NNW,332,4.0,7.0,49,0.00,,,0.07,,2013-02-05 22:01:00,
2013-02-05 16:11:00,64.0,44.0,29.94,NNW,332,4.0,7.0,49,0.00,,,0.07,,2013-02-05 22:11:00,
2013-02-05 16:21:00,64.0,44.0,29.95,NW,325,2.0,7.0,49,0.00,,,0.07,,2013-02-05 22:21:00,
2013-02-05 16:32:00,64.0,45.0,29.96,NNW,334,2.0,7.0,50,0.00,,,0.07,,2013-02-05 22:32:00,
2013-02-05 16:42:00,64.0,45.0,29.96,NNW,334,2.0,7.0,50,0.00,,,0.07,,2013-02-05 22:42:00,
2013-02-05 16:52:00,63.0,45.0,29.96,North,360,0.0,7.0,51,0.00,,,0.07,,2013-02-05 22:52:00,
2013-02-05 17:02:00,63.0,45.0,29.96,NW,319,1.0,7.0,52,0.00,,,0.07,,2013-02-05 23:02:00,
2013-02-05 17:11:00,63.0,45.0,29.96,NW,319,1.0,7.0,52,0.00,,,0.07,,2013-02-05 23:11:00,
2013-02-05 17:22:00,62.0,44.0,29.96,NNW,346,1.0,5.0,52,0.00,,,0.07,,2013-02-05 23:22:00,
2013-02-05 17:32:00,61.0,44.0,29.96,NNW,331,0.0,5.0,54,0.00,,,0.06,,2013-02-05 23:32:00,
2013-02-05 17:42:00,61.0,44.0,29.96,NNW,331,0.0,5.0,54,0.00,,,0.06,,2013-02-05 23:42:00,
2013-02-05 17:52:00,60.0,44.0,29.96,NW,321,0.0,1.0,56,0.00,,,0.06,,2013-02-05 23:52:00,
2013-02-05 18:02:00,59.0,44.0,29.96,NW,321,0.0,0.0,58,0.00,,,0.06,,2013-02-06 00:02:00,
2013-02-05 18:11:00,59.0,44.0,29.96,NW,321,0.0,0.0,58,0.00,,,0.06,,2013-02-06 00:11:00,
2013-02-05 18:22:00,58.0,44.0,29.97,NW,321,0.0,0.0,60,0.00,,,0.06,,2013-02-06 00:22:00,
2013-02-05 18:32:00,57.0,45.0,29.97,NW,321,0.0,0.0,64,0.00,,,0.03,,2013-02-06 00:32:00,
2013-02-05 18:42:00,57.0,45.0,29.97,NW,321,0.0,0.0,64,0.00,,,0.03,,2013-02-06 00:42:00,
2013-02-05 18:52:00,55.0,45.0,29.98,NW,321,0.0,0.0,68,0.00,,,0.03,,2013-02-06 00:52:00,
2013-02-05 19:02:00,54.0,44.0,29.98,NW,321,0.0,0.0,70,0.00,,,0.03,,2013-02-06 01:02:00,
2013-02-05 19:11:00,54.0,44.0,29.98,NW,321,0.0,0.0,70,0.00,,,0.03,,2013-02-06 01:11:00,
2013-02-05 19:22:00,53.0,45.0,29.99,NW,321,0.0,0.0,73,0.00,,,0.03,,2013-02-06 01:22:00,
2013-02-05 19:32:00,52.0,44.0,29.99,NW,321,0.0,0.0,75,0.00,,,0.03,,2013-02-06 01:32:00,
2013-02-05 19:42:00,52.0,44.0,29.99,NW,321,0.0,0.0,75,0.00,,,0.03,,2013-02-06 01:42:00,
2013-02-05 19:53:00,51.0,44.0,29.99,NW,321,0.0,0.0,77,0.00,,,0.03,,2013-02-06 01:53:00,
2013-02-05 20:01:00,50.0,44.0,29.99,NW,321,0.0,0.0,79,0.00,,,0.03,,2013-02-06 02:01:00,
2013-02-05 20:11:00,50.0,44.0,29.99,NW,321,0.0,0.0,79,0.00,,,0.03,,2013-02-06 02:11:00,
2013-02-05 20:22:00,49.0,43.0,30.00,NW,321,0.0,0.0,80,0.00,,,0.03,,2013-02-06 02:22:00,
2013-02-05 20:32:00,49.0,44.0,30.01,NW,321,0.0,0.0,82,0.00,,,0.02,,2013-02-06 02:32:00,
2013-02-05 20:42:00,49.0,44.0,30.01,NW,321,0.0,0.0,82,0.00,,,0.02,,2013-02-06 02:42:00,
2013-02-05 20:52:00,48.0,43.0,30.01,NW,321,0.0,0.0,82,0.00,,,0.02,,2013-02-06 02:52:00,
2013-02-05 21:02:00,47.0,42.0,30.01,NW,321,0.0,0.0,84,0.00,,,0.02,,2013-02-06 03:02:00,
2013-02-05 21:12:00,47.0,42.0,30.01,NW,321,0.0,0.0,84,0.00,,,0.02,,2013-02-06 03:12:00,
2013-02-05 21:22:00,47.0,42.0,30.01,NW,321,0.0,0.0,84,0.00,,,0.02,,2013-02-06 03:22:00,
2013-02-05 21:32:00,46.0,42.0,30.02,NW,321,0.0,0.0,85,0.00,,,0.00,,2013-02-06 03:32:00,
2013-02-05 21:42:00,46.0,42.0,30.02,NW,321,0.0,0.0,85,0.00,,,0.00,,2013-02-06 03:42:00,
2013-02-05 21:53:00,46.0,42.0,30.02,NW,321,0.0,0.0,85,0.00,,,0.00,,2013-02-06 03:53:00,
2013-02-05 22:02:00,45.0,41.0,30.03,NW,321,0.0,0.0,87,0.00,,,0.00,,2013-02-06 04:02:00,
2013-02-05 22:11:00,45.0,41.0,30.03,NW,321,0.0,0.0,87,0.00,,,0.00,,2013-02-06 04:11:00,
2013-02-05 22:21:00,44.0,41.0,30.03,NW,321,0.0,0.0,88,0.00,,,0.00,,2013-02-06 04:21:00,
2013-02-05 22:31:00,44.0,41.0,30.03,NW,321,0.0,0.0,88,0.00,,,0.00,,2013-02-06 04:31:00,
2013-02-05 22:42:00,44.0,41.0,30.03,NW,321,0.0,0.0,88,0.00,,,0.00,,2013-02-06 04:42:00,
2013-02-05 22:52:00,44.0,41.0,30.03,NW,321,0.0,0.0,89,0.00,,,0.00,,2013-02-06 04:52:00,
2013-02-05 23:02:00,44.0,41.0,30.03,NW,321,0.0,0.0,89,0.00,,,0.00,,2013-02-06 05:02:00,
2013-02-05 23:12:00,44.0,41.0,30.03,NW,321,0.0,0.0,89,0.00,,,0.00,,2013-02-06 05:12:00,
2013-02-05 23:22:00,43.0,40.0,30.03,NW,321,0.0,0.0,90,0.00,,,0.00,,2013-02-06 05:22:00,
2013-02-05 23:31:00,43.0,40.0,30.03,NW,321,0.0,0.0,90,0.00,,,0.00,,2013-02-06 05:31:00,
2013-02-05 23:41:00,43.0,40.0,30.03,NW,321,0.0,0.0,90,0.00,,,0.00,,2013-02-06 05:41:00,
2013-02-05 23:53:00,42.0,39.0,30.03,NW,321,0.0,0.0,90,0.00,,,0.00,,2013-02-06 05:53:00,